Location: Newark
(8.1700°N, 77.4300°E)
Time: 20:21:05
(UTC+00:00)

Hubble Space Telescope - Pass Details

Date: 30 August 2019
Orbit: 536 x 540 km, 28.5° (Epoch: 13 October)

Event Time Altitude Azimuth Distance (km) Brightness Sun altitude
Rises 13:36:54 0° 292° (WNW) 2,665 6.3 -9.9°
Reaches altitude 10° 13:39:12 10° 287° (WNW) 1,775 5.0 -10.5°
Maximum altitude 13:43:12 53° 210° (SSW) 654 1.3 -11.5°
Enters shadow 13:46:38 14° 135° (SE) 1,557 2.6 -12.3°
